Location: Dos Palmas
(32.4468°N, 116.8732°W)
Time: 00:33:10
(UTC+00:00)

Cosmos 1452 Rocket - Pass Details

Date: 20 June 2021
Orbit: 768 x 774 km, 74.1° (Epoch: 01 August)

Event Time Altitude Azimuth Distance (km) Brightness Sun altitude
Rises 03:23:57 0° 179° (S) 3,233 6.4 -5.6°
Reaches altitude 10° 03:26:24 10° 172° (S) 2,309 5.6 -6.1°
Maximum altitude 03:31:21 44° 102° (ESE) 1,062 3.9 -6.9°
Drops below altitude 10° 03:36:20 10° 31° (NNE) 2,320 6.0 -7.8°
Sets 03:38:48 0° 25° (NNE) 3,250 6.9 -8.2°
